AEA54ZP LEXJ-LEMD

Flight info

Callsign AEA54ZP
Flight time 0h 46m
Altitude 29000
Route TITAN N864 NONTU
Aircraft B738/M-SDE2E3FGHIRWXY/LB1

Departure

Time 2026-05-08 16:33
Airport Seve Ballesteros-Santander Airport (LEXJ)

Arrival

Time 2026-05-08 17:20
Airport Adolfo Suárez Madrid–Barajas Airport (LEMD)
Time Latitude Longitude Altitude Speed Heading
2026-05-08 16:03 43.42399 -3.82366 18 ft 0 kts 234°
2026-05-08 16:19 43.42407 -3.82350 19 ft 4 kts 238°
2026-05-08 16:19 43.42419 -3.82317 18 ft 4 kts 251°
2026-05-08 16:19 43.42425 -3.82281 18 ft 4 kts 271°
2026-05-08 16:20 43.42422 -3.82257 18 ft 1 kts 285°
2026-05-08 16:20 43.42422 -3.82253 18 ft 0 kts 285°
2026-05-08 16:24 43.42423 -3.82260 18 ft 1 kts 285°
2026-05-08 16:24 43.42428 -3.82284 18 ft 4 kts 287°
2026-05-08 16:24 43.42435 -3.82313 20 ft 5 kts 290°
2026-05-08 16:24 43.42475 -3.82350 18 ft 6 kts
2026-05-08 16:25 43.42521 -3.82330 20 ft 8 kts 19°
2026-05-08 16:25 43.42556 -3.82313 18 ft 9 kts 20°
2026-05-08 16:25 43.42601 -3.82262 18 ft 9 kts 81°
2026-05-08 16:25 43.42575 -3.82142 18 ft 11 kts 110°
2026-05-08 16:26 43.42557 -3.82075 20 ft 12 kts 110°
2026-05-08 16:26 43.42524 -3.81952 18 ft 15 kts 110°
2026-05-08 16:26 43.42483 -3.81796 18 ft 19 kts 110°
2026-05-08 16:26 43.42436 -3.81623 19 ft 19 kts 110°
2026-05-08 16:27 43.42396 -3.81473 20 ft 13 kts 110°
2026-05-08 16:27 43.42380 -3.81365 18 ft 9 kts 70°
2026-05-08 16:27 43.42419 -3.81330 19 ft 0 kts 20°
2026-05-08 16:29 43.42427 -3.81326 19 ft 3 kts 20°
2026-05-08 16:29 43.42457 -3.81310 20 ft 6 kts 20°
2026-05-08 16:29 43.42499 -3.81273 21 ft 9 kts 60°
2026-05-08 16:29 43.42485 -3.81170 22 ft 14 kts 109°
2026-05-08 16:30 43.42445 -3.81020 22 ft 19 kts 110°
2026-05-08 16:30 43.42399 -3.80850 21 ft 19 kts 110°
2026-05-08 16:30 43.42345 -3.80720 19 ft 13 kts 139°
2026-05-08 16:30 43.42323 -3.80647 18 ft 8 kts 52°
2026-05-08 16:31 43.42351 -3.80671 18 ft 0 kts 289°
2026-05-08 16:32 43.42357 -3.80696 18 ft 18 kts 290°
2026-05-08 16:32 43.42497 -3.81216 21 ft 96 kts 290°
2026-05-08 16:33 43.42804 -3.82364 25 ft 159 kts 291°
2026-05-08 16:33 43.43206 -3.83863 708 ft 162 kts 291°
2026-05-08 16:33 43.43606 -3.85316 1561 ft 173 kts 291°
2026-05-08 16:33 43.44069 -3.86985 2049 ft 198 kts 290°
2026-05-08 16:34 43.44588 -3.88861 2337 ft 226 kts 290°
2026-05-08 16:34 43.45167 -3.91001 2715 ft 244 kts 289°
2026-05-08 16:34 43.45758 -3.93288 3136 ft 267 kts 288°
2026-05-08 16:34 43.46409 -3.95809 3648 ft 283 kts 288°
2026-05-08 16:35 43.47062 -3.98303 4897 ft 271 kts 287°
2026-05-08 16:35 43.47708 -4.00734 5933 ft 271 kts 288°
2026-05-08 16:35 43.48356 -4.03179 6684 ft 279 kts 287°
2026-05-08 16:35 43.49018 -4.05706 7549 ft 280 kts 285°
2026-05-08 16:36 43.49172 -4.08330 8400 ft 276 kts 255°
2026-05-08 16:36 43.48275 -4.10635 9248 ft 273 kts 222°
2026-05-08 16:36 43.46661 -4.11892 10074 ft 275 kts 194°
2026-05-08 16:36 43.44701 -4.11943 10496 ft 295 kts 169°
2026-05-08 16:37 43.42710 -4.10879 10744 ft 319 kts 156°
2026-05-08 16:37 43.40531 -4.09885 10974 ft 338 kts 170°
2026-05-08 16:37 43.38158 -4.09624 11563 ft 345 kts 181°
2026-05-08 16:37 43.35764 -4.09701 12315 ft 349 kts 182°
2026-05-08 16:38 43.33332 -4.09821 12758 ft 347 kts 183°
2026-05-08 16:38 43.30895 -4.09947 13157 ft 353 kts 182°
2026-05-08 16:38 43.28443 -4.10053 13831 ft 357 kts 182°
2026-05-08 16:38 43.25938 -4.10149 14572 ft 359 kts 182°
2026-05-08 16:39 43.23427 -4.10244 15260 ft 362 kts 182°
2026-05-08 16:39 43.20923 -4.10338 15933 ft 365 kts 183°
2026-05-08 16:39 43.18366 -4.10437 16600 ft 369 kts 182°
2026-05-08 16:39 43.15788 -4.10537 17277 ft 372 kts 182°
2026-05-08 16:40 43.13177 -4.10638 17958 ft 375 kts 182°
2026-05-08 16:40 43.10587 -4.10740 18533 ft 378 kts 183°
2026-05-08 16:40 43.07945 -4.10843 19089 ft 381 kts 183°
2026-05-08 16:40 43.05279 -4.10948 19648 ft 384 kts 182°
2026-05-08 16:41 43.02583 -4.11054 20216 ft 387 kts 183°
2026-05-08 16:41 42.99873 -4.11160 20749 ft 390 kts 183°
2026-05-08 16:41 42.97145 -4.11267 21264 ft 394 kts 183°
2026-05-08 16:42 42.91648 -4.11482 22308 ft 400 kts 183°
2026-05-08 16:42 42.88847 -4.11592 22806 ft 403 kts 183°
2026-05-08 16:42 42.86019 -4.11702 23296 ft 406 kts 183°
2026-05-08 16:42 42.83211 -4.11812 23727 ft 409 kts 183°
2026-05-08 16:43 42.80345 -4.11924 24147 ft 411 kts 183°
2026-05-08 16:43 42.77462 -4.12036 24569 ft 413 kts 183°
2026-05-08 16:43 42.74576 -4.12148 24975 ft 416 kts 183°
2026-05-08 16:43 42.71715 -4.12259 25483 ft 415 kts 183°
2026-05-08 16:44 42.68842 -4.12370 26069 ft 412 kts 184°
2026-05-08 16:44 42.65981 -4.12480 26624 ft 410 kts 184°
2026-05-08 16:44 42.63118 -4.12591 27107 ft 411 kts 184°
2026-05-08 16:44 42.60265 -4.12702 27583 ft 411 kts 184°
2026-05-08 16:45 42.57396 -4.12813 28092 ft 410 kts 184°
2026-05-08 16:45 42.54573 -4.12922 28636 ft 408 kts 184°
2026-05-08 16:45 42.51716 -4.13033 28927 ft 411 kts 185°
2026-05-08 16:46 42.46024 -4.13253 28918 ft 410 kts 185°
2026-05-08 16:46 42.40323 -4.13472 28933 ft 410 kts 185°
2026-05-08 16:47 42.34613 -4.13692 28930 ft 411 kts 185°
2026-05-08 16:47 42.28909 -4.13911 28931 ft 412 kts 185°
2026-05-08 16:48 42.23162 -4.14131 28922 ft 412 kts 185°
2026-05-08 16:48 42.17457 -4.14350 28925 ft 412 kts 185°
2026-05-08 16:49 42.11705 -4.14569 28919 ft 412 kts 185°
2026-05-08 16:49 42.05964 -4.14788 28922 ft 412 kts 185°
2026-05-08 16:50 42.00271 -4.15004 28925 ft 411 kts 185°
2026-05-08 16:50 41.94527 -4.15223 28916 ft 412 kts 185°
2026-05-08 16:51 41.88815 -4.15439 28909 ft 413 kts 185°
2026-05-08 16:51 41.83055 -4.15657 28915 ft 414 kts 185°
2026-05-08 16:52 41.77296 -4.15875 28908 ft 416 kts 185°
2026-05-08 16:52 41.71488 -4.16094 28910 ft 417 kts 185°
2026-05-08 16:53 41.62783 -4.16421 28903 ft 419 kts 185°
2026-05-08 16:53 41.56931 -4.16641 28905 ft 421 kts 185°
2026-05-08 16:54 41.51087 -4.16860 28899 ft 422 kts 185°
2026-05-08 16:54 41.45313 -4.17324 28877 ft 404 kts 189°
2026-05-08 16:55 41.39736 -4.18021 28891 ft 401 kts 189°
2026-05-08 16:55 41.36974 -4.18357 28589 ft 406 kts 189°
2026-05-08 16:55 41.34170 -4.18682 28285 ft 400 kts 189°
2026-05-08 16:56 41.31407 -4.18992 27885 ft 396 kts 189°
2026-05-08 16:56 41.28662 -4.19298 27468 ft 393 kts 188°
2026-05-08 16:56 41.25944 -4.19598 27078 ft 389 kts 188°
2026-05-08 16:56 41.23253 -4.19809 26770 ft 384 kts 186°
2026-05-08 16:57 41.20613 -4.19961 26368 ft 382 kts 186°
2026-05-08 16:57 41.17966 -4.20100 25988 ft 379 kts 186°
2026-05-08 16:57 41.15334 -4.20240 25603 ft 376 kts 185°
2026-05-08 16:57 41.12742 -4.20385 25226 ft 374 kts 185°
2026-05-08 16:58 41.10142 -4.20537 24844 ft 371 kts 185°
2026-05-08 16:58 41.07566 -4.20691 24476 ft 369 kts 185°
2026-05-08 16:58 41.05001 -4.20846 24098 ft 367 kts 185°
2026-05-08 16:58 41.02487 -4.20999 23734 ft 365 kts 185°
2026-05-08 16:59 40.99934 -4.21154 23347 ft 363 kts 184°
2026-05-08 16:59 40.97413 -4.21307 22899 ft 361 kts 184°
2026-05-08 16:59 40.94910 -4.21458 22510 ft 358 kts 185°
2026-05-08 16:59 40.92433 -4.21608 22128 ft 355 kts 185°
2026-05-08 17:00 40.89977 -4.21756 21775 ft 351 kts 185°
2026-05-08 17:00 40.87539 -4.21904 21395 ft 349 kts 185°
2026-05-08 17:00 40.85156 -4.22047 21095 ft 345 kts 185°
2026-05-08 17:00 40.82763 -4.22191 20842 ft 342 kts 185°
2026-05-08 17:01 40.80387 -4.22334 20495 ft 341 kts 185°
2026-05-08 17:01 40.78014 -4.22478 20062 ft 341 kts 185°
2026-05-08 17:01 40.75628 -4.22620 19604 ft 343 kts 185°
2026-05-08 17:01 40.73251 -4.22764 19279 ft 340 kts 185°
2026-05-08 17:02 40.70929 -4.22904 18951 ft 337 kts 185°
2026-05-08 17:02 40.68581 -4.23045 18582 ft 335 kts 185°
2026-05-08 17:02 40.66257 -4.23185 18248 ft 332 kts 184°
2026-05-08 17:02 40.63970 -4.23322 17877 ft 330 kts 185°
2026-05-08 17:03 40.61674 -4.23459 17509 ft 328 kts 184°
2026-05-08 17:03 40.59418 -4.23595 17131 ft 326 kts 185°
2026-05-08 17:03 40.57221 -4.23726 16780 ft 324 kts 184°
2026-05-08 17:03 40.54966 -4.23861 16408 ft 323 kts 184°
2026-05-08 17:04 40.52722 -4.23896 16014 ft 323 kts 175°
2026-05-08 17:04 40.50580 -4.23114 15688 ft 323 kts 161°
2026-05-08 17:04 40.48467 -4.22017 15345 ft 322 kts 160°
2026-05-08 17:04 40.46420 -4.20928 14975 ft 321 kts 160°
2026-05-08 17:05 40.44348 -4.19834 14655 ft 319 kts 160°
2026-05-08 17:05 40.42286 -4.18761 14322 ft 317 kts 160°
2026-05-08 17:05 40.40232 -4.17703 13999 ft 316 kts 160°
2026-05-08 17:05 40.38189 -4.16656 13681 ft 313 kts 160°
2026-05-08 17:06 40.36194 -4.15595 13315 ft 313 kts 154°
2026-05-08 17:06 40.34481 -4.13809 12910 ft 317 kts 131°
2026-05-08 17:06 40.33398 -4.11299 12588 ft 318 kts 112°
2026-05-08 17:06 40.32689 -4.08592 12266 ft 316 kts 110°
2026-05-08 17:07 40.32021 -4.05844 11915 ft 315 kts 109°
2026-05-08 17:07 40.31363 -4.03109 11578 ft 314 kts 110°
2026-05-08 17:07 40.30700 -4.00383 11236 ft 313 kts 110°
2026-05-08 17:07 40.30032 -3.97670 10919 ft 311 kts 110°
2026-05-08 17:08 40.29364 -3.94982 10594 ft 309 kts 110°
2026-05-08 17:08 40.28693 -3.92300 10285 ft 308 kts 110°
2026-05-08 17:08 40.28033 -3.89676 9968 ft 306 kts 110°
2026-05-08 17:08 40.27367 -3.87029 9779 ft 300 kts 110°
2026-05-08 17:09 40.26721 -3.84468 9692 ft 290 kts 110°
2026-05-08 17:09 40.26308 -3.82827 9652 ft 283 kts 110°
2026-05-08 17:09 40.25504 -3.79650 9535 ft 271 kts 110°
2026-05-08 17:09 40.24915 -3.77327 9321 ft 267 kts 110°
2026-05-08 17:10 40.24526 -3.75796 9136 ft 266 kts 110°
2026-05-08 17:10 40.23939 -3.73486 8771 ft 270 kts 110°
2026-05-08 17:10 40.23340 -3.71134 8488 ft 275 kts 110°
2026-05-08 17:10 40.22728 -3.68731 8192 ft 281 kts 110°
2026-05-08 17:11 40.22103 -3.66278 7882 ft 285 kts 110°
2026-05-08 17:11 40.21484 -3.63849 7575 ft 285 kts 110°
2026-05-08 17:11 40.20859 -3.61395 7267 ft 284 kts 110°
2026-05-08 17:11 40.20232 -3.58935 6966 ft 283 kts 110°
2026-05-08 17:12 40.19617 -3.56523 6661 ft 282 kts 110°
2026-05-08 17:12 40.18992 -3.54082 6377 ft 280 kts 110°
2026-05-08 17:12 40.18379 -3.51687 6250 ft 272 kts 110°
2026-05-08 17:12 40.17791 -3.49392 6117 ft 265 kts 110°
2026-05-08 17:13 40.17546 -3.47035 5969 ft 260 kts 84°
2026-05-08 17:13 40.18151 -3.44843 5667 ft 264 kts 58°
2026-05-08 17:13 40.19388 -3.43060 5343 ft 266 kts 44°
2026-05-08 17:13 40.20791 -3.41454 4982 ft 269 kts 38°
2026-05-08 17:14 40.22373 -3.40168 4818 ft 265 kts 30°
2026-05-08 17:14 40.23954 -3.39054 4718 ft 251 kts 29°
2026-05-08 17:14 40.25570 -3.38375 4564 ft 240 kts
2026-05-08 17:14 40.27185 -3.38471 4449 ft 227 kts 353°
2026-05-08 17:15 40.28723 -3.38750 4184 ft 222 kts 352°
2026-05-08 17:15 40.30173 -3.39299 4004 ft 209 kts 329°
2026-05-08 17:15 40.31338 -3.40267 3971 ft 193 kts 326°
2026-05-08 17:15 40.32424 -3.41258 3980 ft 188 kts 323°
2026-05-08 17:16 40.33480 -3.42299 3975 ft 191 kts 321°
2026-05-08 17:16 40.34529 -3.43366 4001 ft 194 kts 321°
2026-05-08 17:16 40.35595 -3.44455 4000 ft 195 kts 321°
2026-05-08 17:16 40.36669 -3.45552 4006 ft 195 kts 321°
2026-05-08 17:17 40.37736 -3.46641 4005 ft 190 kts 321°
2026-05-08 17:17 40.38769 -3.47695 3828 ft 187 kts 321°
2026-05-08 17:17 40.39789 -3.48738 3608 ft 185 kts 321°
2026-05-08 17:17 40.40784 -3.49752 3365 ft 181 kts 322°
2026-05-08 17:18 40.41735 -3.50724 3131 ft 167 kts 322°
2026-05-08 17:18 40.42618 -3.51625 2912 ft 157 kts 322°
2026-05-08 17:18 40.43465 -3.52490 2684 ft 152 kts 322°
2026-05-08 17:18 40.44299 -3.53347 2483 ft 151 kts 323°
2026-05-08 17:19 40.45130 -3.54187 2258 ft 151 kts 323°
2026-05-08 17:19 40.45944 -3.55024 2091 ft 149 kts 323°
2026-05-08 17:19 40.46754 -3.55838 1965 ft 138 kts 323°
2026-05-08 17:19 40.47373 -3.56466 1990 ft 81 kts 322°
2026-05-08 17:20 40.47654 -3.56751 1995 ft 32 kts 320°
2026-05-08 17:20 40.47773 -3.56962 1997 ft 20 kts 295°
2026-05-08 17:20 40.47804 -3.57078 1998 ft 11 kts 263°
2026-05-08 17:20 40.47746 -3.57110 1998 ft 10 kts 158°
2026-05-08 17:21 40.47688 -3.57056 1997 ft 10 kts 142°
2026-05-08 17:21 40.47625 -3.56996 1994 ft 13 kts 140°
2026-05-08 17:21 40.47541 -3.56908 1992 ft 17 kts 140°
2026-05-08 17:21 40.47450 -3.56814 1989 ft 13 kts 142°
2026-05-08 17:22 40.47387 -3.56772 1988 ft 10 kts 190°
2026-05-08 17:22 40.47341 -3.56834 1989 ft 10 kts 232°
2026-05-08 17:22 40.47301 -3.56899 1986 ft 9 kts 221°
2026-05-08 17:22 40.47246 -3.56922 1988 ft 9 kts 185°
2026-05-08 17:23 40.47197 -3.56950 1985 ft 7 kts 247°
2026-05-08 17:23 40.47190 -3.57005 1985 ft 5 kts 262°
2026-05-08 17:23 40.47189 -3.57014 1985 ft 1 kts 262°
2026-05-08 17:23 40.47187 -3.57029 1985 ft 0 kts 262°
2026-05-08 17:24 40.47187 -3.57031 1985 ft 0 kts 262°